Regional Weather Roundup
Issued by NWS

Home | Current Version | Previous Version | Graphics & Text | Print | Product List | Glossary On
Versions: 1 2 3 4 5 6 7 8 9 10 11 12 13 14 15 16 17 18 19 20 21 22 23 24 25 26 27
306
ASUS45 KSLC 220110
RWRUT

UTAH REGIONAL WEATHER ROUNDUP
NATIONAL WEATHER SERVICE SALT LAKE CITY UT
700 PM MDT THU MAY 21 2015

UTZ001>011-023>025-220200-

NORTHERN UTAH

CITY           SKY/WX    TMP DP  RH WIND       PRES   REMARKS
BRIGHAM CITY   CLOUDY    60  40  47 NE16      29.90F
HILL AFB       CLOUDY    57  44  62 NE6       29.90F
LOGAN          SUNNY     55  44  66 SE13      29.93F
OGDEN          CLOUDY    59  45  59 NE7       29.89F
PROVO AIRPORT  PTSUNNY   57  43  58 N7        29.89F
SALT LAKE CITY CLOUDY    61  44  53 N7        29.88F
VERNAL         PTSUNNY   69  32  25 SW6       29.86F
WENDOVER       CLOUDY    55  46  71 SE22G35   29.91R
HEBER CITY     TSTM      52  41  66 S16G29    30.00R
WEST JORDAN    PTSUNNY   61  46  59 N6        29.90S

$$

UTZ012>022-026-027-220200-

SOUTHERN/CENTRAL UTAH

CITY           SKY/WX    TMP DP  RH WIND       PRES   REMARKS
BLANDING       PTSUNNY   70  21  15 SW12      29.92F
BRYCE CANYON   CLOUDY    53  26  35 SW15      29.99S
CEDAR CITY     CLOUDY    61  20  20 SW17      29.87F
DELTA          CLOUDY    67  27  21 S13       29.85F
HANKSVILLE     PTSUNNY   73  25  16 S9        29.81S
MILFORD        MOSUNNY   67  24  19 S9        29.84F
MOAB/CYNLANDS  SUNNY     71  31  22 S3        29.81F
PRICE          MOSUNNY   66  24  20 S10       29.88S
ST GEORGE      CLOUDY    75  28  17 W13G20    29.80R
KANAB          CLOUDY    64  30  27 NW5       29.90

$$

REGIONAL REPORTS     COLORADO/ARIZONA

CITY           SKY/WX    TMP DP  RH WIND       PRES   REMARKS
CRAIG, CO      CLOUDY    62  40  44 E7        29.93F
GRAND JUNCTION CLOUDY    63  40  42 N5        29.90S
RIFLE          CLOUDY    61  42  49 W3        29.92R
MONTROSE       CLOUDY    61  36  39 W6G18     29.94F
CORTEZ         PTSUNNY   63  37  38 SE20G37   29.89S
PAGE, AZ       NOT AVBL
GRAND CANYON   LGT RAIN  53  30  41 VRB6G25   29.97S
KINGMAN        PTSUNNY   76  21  12 SW22G29   29.81F
FLAGSTAFF      MOSUNNY   57  18  21 SW16G29   29.99S

$$

REGIONAL REPORTS    NEVADA/IDAHO/WYOMING

CITY           SKY/WX    TMP DP  RH WIND       PRES   REMARKS
LAS VEGAS, NV  PTSUNNY   76  33  21 W17       29.72S
ELY            LGT RAIN  53  34  48 E14G26    29.92F
ELKO           PTSUNNY   62  38  40 N8        29.87F
POCATELLO, ID  MOSUNNY   66  41  40 W5        29.88R THUNDER
BURLEY         PTSUNNY   59  44  57 W12       29.85F
EVANSTON, WY   CLOUDY    45  40  82 N5        30.02S
ROCK SPRINGS   CLOUDY    50  40  68 NE13      30.00R
KEMMERER       RAIN      43  41  93 W8        30.05F

$$



USA.gov is the U.S. government's official web portal to all federal, state and local government web resources and services.